| time (UTC) | temp F | wind direction | speed MPH | gust MPH | rain 1hr in | rain 24hr in | rain mn in | humidity % | barometer mb |
| 20260509174526 | 47 | 197 | 0.0 | 0.0 | 0.00 | 0.00 | 0.00 | 93 | 1010.5 |
| 20260509173021 | 46 | 198 | 0.0 | 0.0 | 0.00 | 0.00 | 0.00 | 93 | 1010.6 |
| 20260509171519 | 46 | 198 | 0.0 | 1.0 | 0.00 | 0.00 | 0.00 | 92 | 1010.7 |
| 20260509170018 | 46 | 197 | 0.0 | 0.0 | 0.00 | 0.00 | 0.00 | 92 | 1011.0 |
| 20260509164516 | 46 | 197 | 0.0 | 1.0 | 0.00 | 0.00 | 0.00 | 91 | 1011.2 |
| 20260509163019 | 45 | 197 | 0.0 | 1.0 | 0.00 | 0.00 | 0.00 | 91 | 1011.3 |
| 20260509161612 | 45 | 197 | 0.0 | 1.0 | 0.00 | 0.00 | 0.00 | 90 | 1011.5 |
| 20260509160058 | 45 | 197 | 0.0 | 1.0 | 0.00 | 0.00 | 0.00 | 89 | 1011.8 |
| 20260509154601 | 46 | 198 | 0.0 | 1.0 | 0.00 | 0.00 | 0.00 | 86 | 1011.8 |
| 20260509153034 | 47 | 198 | 0.0 | 0.0 | 0.00 | 0.00 | 0.00 | 86 | 1012.0 |
| 20260509151533 | 46 | 197 | 0.0 | 0.0 | 0.00 | 0.00 | 0.00 | 86 | 1012.1 |
| 20260509150020 | 46 | 197 | 0.0 | 0.0 | 0.00 | 0.00 | 0.00 | 83 | 1012.2 |
| 20260509144516 | 46 | 197 | 0.0 | 0.0 | 0.00 | 0.00 | 0.00 | 78 | 1012.2 |
| 20260509143018 | 45 | 197 | 0.0 | 1.0 | 0.00 | 0.00 | 0.00 | 80 | 1012.1 |
| 20260509141511 | 45 | 197 | 0.0 | 1.0 | 0.00 | 0.00 | 0.00 | 78 | 1012.3 |
| 20260509140009 | 45 | 197 | 0.0 | 0.0 | 0.00 | 0.00 | 0.00 | 77 | 1012.2 |
| 20260509134508 | 45 | 197 | 0.0 | 1.0 | 0.00 | 0.00 | 0.00 | 77 | 1012.0 |
| 20260509133007 | 45 | 197 | 0.0 | 0.0 | 0.00 | 0.00 | 0.00 | 76 | 1012.1 |
| 20260509131504 | 45 | 194 | 0.0 | 1.0 | 0.00 | 0.00 | 0.00 | 72 | 1012.0 |
| 20260509130104 | 45 | 203 | 0.0 | 1.0 | 0.00 | 0.00 | 0.00 | 74 | 1012.1 |
| 20260509124603 | 44 | 186 | 0.0 | 2.0 | 0.00 | 0.00 | 0.00 | 77 | 1012.1 |
| 20260509123052 | 44 | 199 | 0.0 | 3.0 | 0.00 | 0.00 | 0.00 | 80 | 1012.3 |
| 20260509121600 | 43 | 208 | 0.0 | 1.0 | 0.00 | 0.00 | 0.00 | 82 | 1012.4 |
| 20260509120051 | 41 | 174 | 0.0 | 0.0 | 0.00 | 0.00 | 0.00 | 86 | 1012.5 |
| 20260509114550 | 40 | 174 | 0.0 | 1.0 | 0.00 | 0.00 | 0.00 | 89 | 1012.6 |
| 20260509113055 | 38 | 175 | 0.0 | 0.0 | 0.00 | 0.00 | 0.00 | 90 | 1012.6 |
| 20260509111556 | 36 | 174 | 0.0 | 0.0 | 0.00 | 0.00 | 0.00 | 92 | 1012.5 |
| 20260509110037 | 35 | 174 | 0.0 | 0.0 | 0.00 | 0.00 | 0.00 | 92 | 1012.7 |
| 20260509104536 | 34 | 174 | 0.0 | 0.0 | 0.00 | 0.00 | 0.00 | 93 | 1012.7 |
| 20260509103036 | 32 | 174 | 0.0 | 0.0 | 0.00 | 0.00 | 0.00 | 93 | 1012.7 |
| 20260509101534 | 31 | 174 | 0.0 | 0.0 | 0.00 | 0.00 | 0.00 | 92 | 1012.6 |
| 20260509100034 | 31 | 174 | 0.0 | 0.0 | 0.00 | 0.00 | 0.00 | 92 | 1012.6 |
| 20260509094533 | 31 | 174 | 0.0 | 0.0 | 0.00 | 0.00 | 0.00 | 92 | 1012.6 |
| 20260509093032 | 31 | 174 | 0.0 | 0.0 | 0.00 | 0.00 | 0.00 | 91 | 1012.6 |
| 20260509091532 | 32 | 174 | 0.0 | 0.0 | 0.00 | 0.00 | 0.00 | 91 | 1012.5 |
| 20260509090019 | 32 | 174 | 0.0 | 2.0 | 0.00 | 0.00 | 0.00 | 91 | 1012.3 |
| 20260509084520 | 32 | 174 | 0.0 | 0.0 | 0.00 | 0.00 | 0.00 | 91 | 1012.3 |
| 20260509083017 | 32 | 174 | 0.0 | 0.0 | 0.00 | 0.00 | 0.00 | 91 | 1012.3 |
| 20260509081519 | 32 | 174 | 0.0 | 0.0 | 0.00 | 0.00 | 0.00 | 91 | 1012.3 |
| 20260509080018 | 32 | 174 | 0.0 | 1.0 | 0.00 | 0.00 | 0.00 | 91 | 1012.2 |
| 20260509074516 | 32 | 174 | 0.0 | 0.0 | 0.00 | 0.00 | 0.00 | 91 | 1012.0 |
| 20260509073013 | 32 | 174 | 0.0 | 0.0 | 0.00 | 0.00 | 0.00 | 91 | 1011.9 |
| 20260509071516 | 32 | 174 | 0.0 | 0.0 | 0.00 | 0.00 | 0.00 | 91 | 1012.1 |
| 20260509070053 | 32 | 174 | 0.0 | 0.0 | 0.00 | 0.00 | 0.00 | 90 | 1012.3 |
| 20260509064552 | 32 | 174 | 0.0 | 0.0 | 0.00 | 0.00 | 0.00 | 90 | 1012.3 |
| 20260509063039 | 32 | 174 | 0.0 | 0.0 | 0.00 | 0.00 | 0.00 | 90 | 1012.5 |
| 20260509061542 | 32 | 174 | 0.0 | 0.0 | 0.00 | 0.00 | 0.00 | 90 | 1012.6 |
| 20260509060038 | 33 | 174 | 0.0 | 0.0 | 0.00 | 0.00 | 0.00 | 89 | 1012.8 |
| 20260509054536 | 33 | 174 | 0.0 | 0.0 | 0.00 | 0.00 | 0.00 | 89 | 1012.8 |
| 20260509053048 | 33 | 174 | 0.0 | 0.0 | 0.00 | 0.00 | 0.00 | 89 | 1012.8 |
| 20260509051531 | 34 | 174 | 0.0 | 0.0 | 0.00 | 0.00 | 0.00 | 89 | 1012.7 |
| 20260509050031 | 34 | 174 | 0.0 | 0.0 | 0.00 | 0.00 | 0.00 | 88 | 1012.6 |
| 20260509044527 | 34 | 174 | 0.0 | 1.0 | 0.00 | 0.00 | 0.00 | 88 | 1012.5 |
| 20260509043008 | 35 | 174 | 0.0 | 0.0 | 0.00 | 0.00 | 0.00 | 87 | 1012.4 |
| 20260509041506 | 35 | 174 | 0.0 | 0.0 | 0.00 | 0.00 | 0.00 | 87 | 1012.3 |
| 20260509040055 | 36 | 175 | 0.0 | 0.0 | 0.00 | 0.00 | 0.00 | 86 | 1012.2 |
| 20260509034601 | 36 | 174 | 0.0 | 1.0 | 0.00 | 0.00 | 0.00 | 86 | 1012.1 |
| 20260509033030 | 37 | 174 | 0.0 | 1.0 | 0.00 | 0.00 | 0.00 | 85 | 1012.2 |
| 20260509031530 | 37 | 175 | 0.0 | 1.0 | 0.00 | 0.00 | 0.00 | 85 | 1012.2 |
| 20260509030026 | 38 | 175 | 0.0 | 0.0 | 0.00 | 0.00 | 0.00 | 84 | 1012.1 |
| 20260509024523 | 38 | 174 | 0.0 | 0.0 | 0.00 | 0.00 | 0.00 | 83 | 1012.1 |
| 20260509023020 | 39 | 174 | 0.0 | 0.0 | 0.00 | 0.00 | 0.00 | 82 | 1011.9 |
| 20260509021517 | 40 | 174 | 0.0 | 0.0 | 0.00 | 0.00 | 0.00 | 81 | 1011.8 |
| 20260509020013 | 41 | 174 | 0.0 | 0.0 | 0.00 | 0.00 | 0.00 | 79 | 1011.7 |
| 20260509014511 | 42 | 174 | 0.0 | 0.0 | 0.00 | 0.00 | 0.00 | 78 | 1011.5 |
| 20260509013055 | 42 | 174 | 0.0 | 0.0 | 0.00 | 0.00 | 0.00 | 76 | 1011.3 |
| 20260509011550 | 43 | 174 | 0.0 | 0.0 | 0.00 | 0.00 | 0.00 | 74 | 1011.1 |
| 20260509010053 | 44 | 174 | 0.0 | 0.0 | 0.00 | 0.00 | 0.00 | 72 | 1010.7 |
| 20260509004542 | 46 | 174 | 0.0 | 0.0 | 0.00 | 0.00 | 0.00 | 68 | 1010.4 |
| 20260509003039 | 47 | 174 | 0.0 | 1.0 | 0.00 | 0.00 | 0.00 | 66 | 1010.1 |
| 20260509001534 | 48 | 174 | 0.0 | 0.0 | 0.00 | 0.00 | 0.00 | 63 | 1010.1 |
| 20260509000030 | 50 | 174 | 0.0 | 1.0 | 0.00 | 0.00 | 0.00 | 61 | 1010.1 |
| 20260508234528 | 51 | 174 | 0.0 | 1.0 | 0.00 | 0.00 | 0.00 | 52 | 1010.0 |
| 20260508233017 | 52 | 174 | 0.0 | 3.0 | 0.00 | 0.00 | 0.00 | 49 | 1009.8 |
| 20260508231516 | 53 | 170 | 0.0 | 5.0 | 0.00 | 0.00 | 0.00 | 47 | 1009.7 |
| 20260508230032 | 53 | 200 | 0.0 | 3.0 | 0.00 | 0.00 | 0.00 | 47 | 1009.7 |
| 20260508224516 | 54 | 327 | 0.0 | 1.0 | 0.00 | 0.00 | 0.00 | 45 | 1009.6 |
| 20260508223014 | 54 | 195 | 0.0 | 2.0 | 0.00 | 0.00 | 0.00 | 43 | 1009.3 |
| 20260508221533 | 55 | 156 | 0.0 | 3.0 | 0.00 | 0.00 | 0.00 | 39 | 1009.2 |
| 20260508220013 | 56 | 184 | 0.0 | 4.0 | 0.00 | 0.00 | 0.00 | 39 | 1009.2 |
| 20260508214512 | 56 | 198 | 0.0 | 4.0 | 0.00 | 0.00 | 0.00 | 38 | 1009.2 |
| 20260508213055 | 57 | 188 | 0.0 | 1.0 | 0.00 | 0.00 | 0.00 | 37 | 1009.2 |
| 20260508211554 | 58 | 293 | 0.0 | 3.0 | 0.00 | 0.00 | 0.00 | 35 | 1009.0 |
| 20260508210043 | 60 | 172 | 0.0 | 2.0 | 0.00 | 0.00 | 0.00 | 32 | 1008.9 |
| 20260508204542 | 63 | 169 | 0.0 | 5.0 | 0.00 | 0.00 | 0.00 | 30 | 1008.8 |
| 20260508203038 | 63 | 172 | 0.0 | 5.0 | 0.00 | 0.00 | 0.00 | 32 | 1008.7 |
| 20260508201537 | 62 | 194 | 2.0 | 6.0 | 0.00 | 0.00 | 0.00 | 33 | 1008.8 |
| 20260508200044 | 58 | 174 | 0.0 | 3.0 | 0.00 | 0.00 | 0.00 | 36 | 1008.9 |
| 20260508194534 | 56 | 180 | 0.0 | 6.0 | 0.00 | 0.00 | 0.00 | 38 | 1009.0 |
| 20260508193035 | 56 | 181 | 0.0 | 4.0 | 0.00 | 0.00 | 0.00 | 35 | 1008.9 |
| 20260508191533 | 57 | 225 | 0.0 | 3.0 | 0.00 | 0.00 | 0.00 | 34 | 1008.9 |
| 20260508190014 | 57 | 193 | 1.0 | 6.0 | 0.00 | 0.00 | 0.00 | 34 | 1008.8 |
| 20260508184514 | 58 | 6 | 0.0 | 7.0 | 0.00 | 0.00 | 0.00 | 34 | 1008.8 |
| 20260508183112 | 58 | 196 | 0.0 | 3.0 | 0.00 | 0.00 | 0.00 | 34 | 1008.9 |
| 20260508181654 | 58 | 186 | 0.0 | 2.0 | 0.00 | 0.00 | 0.00 | 34 | 1009.0 |
| 20260508180053 | 58 | 207 | 0.0 | 1.0 | 0.00 | 0.00 | 0.00 | 35 | 1009.1 |